Meteo Giornale » Osservazioni meteo Belgio » Charleroi-Gosselies

ore: 23:20 - Osservazioni Meteo Charleroi-Gosselies
Lat. 50° 28' N Lon. 4° 27' E Alt. 187 metri s.l.m.

sereno Europe/Brussels

17 °C

Sereno

Temp. 24 Ore

11 °C

22 °C

Nord

5.5 Km/h

Dew point 14 °C

Umidità 82 %

Visibilità  10 Km

Il sole sorge alle ore 07:31

Il sole tramonta alle ore 19:35

Data e Ora Cielo e Fenomeni T °C DP °C Um. % Pres. hPa Vis. km Vento km/h
Oggi h: 23:20 sereno Sereno 17 14 82 1014 10 N 5.5
Oggi h: 22:50 sereno Sereno 18 14 77 1014 10 N 5.5
Oggi h: 22:20 sereno Sereno 17 14 82 1015 10 E/SE 7.4
Oggi h: 21:50 sereno Sereno 18 14 77 1015 10 N 3.7
Oggi h: 21:20 sereno Sereno 18 14 77 1015 10 N 3.7
Oggi h: 20:50 sereno Sereno 19 13 68 1015 10 N 5.5
Oggi h: 20:20 sereno Sereno 18 12 67 1015 10 N 5.5
Oggi h: 19:50 sereno Sereno 18 13 72 1015 10 N 3.7
Oggi h: 19:20 sereno Sereno 19 12 63 1014 10 N 3.7
Oggi h: 18:50 sereno Sereno 20 13 64 1015 10 N 5.5
Oggi h: 17:50 sereno Sereno 21 11 52 1015 10 S/SE 9.3
Oggi h: 17:20 sereno Sereno 22 10 46 1015 10 S/SE 7.4
Oggi h: 16:50 sereno Sereno 22 9 43 1015 10 N 5.5
Oggi h: 16:20 sereno Sereno 22 11 49 1015 10 N 5.5
Oggi h: 15:50 sereno Sereno 22 12 53 1015 10 SE 9.3
Oggi h: 15:20 sereno Sereno 21 11 52 1015 10 N 5.5
Oggi h: 14:20 sereno Sereno 21 11 52 1016 10 N 3.7
Oggi h: 13:50 sereno Sereno 20 12 59 1016 10 N 1.8
Oggi h: 13:20 poco_nuvoloso Poco Nuvoloso 19 11 59 1017 10 SO 7.4
Oggi h: 12:50 poco_nuvoloso Poco Nuvoloso 18 12 67 1017 10 N 5.5
Oggi h: 12:20 poco_nuvoloso Poco Nuvoloso 18 12 67 1017 10 SO 7.4
Oggi h: 11:50 poco_nuvoloso Poco Nuvoloso 17 12 72 1017 10 SO 9.3
Oggi h: 11:20 poco_nuvoloso Poco Nuvoloso 16 13 82 1017 10 SO 7.4
Oggi h: 10:50 poco_nuvoloso Poco Nuvoloso 16 13 82 1017 10 SO 9.3
Oggi h: 10:20 poco_nuvoloso Poco Nuvoloso 15 13 87 1017 10 S/SO 7.4
Oggi h: 09:50 poco_nuvoloso Poco Nuvoloso 14 13 93 1017 10 S/SO 11.1
Oggi h: 09:20 sereno Sereno 13 12 93 1017 8 S/SO 11.1
Oggi h: 07:50 foschia Foschia 12 11 93 1017 5 S 11.1
Oggi h: 07:20 foschia Foschia 11 11 100 1016 5 S/SO 9.3
Oggi h: 06:50 foschia Foschia 12 11 93 1017 5 S 11.1
Oggi h: 05:50 foschia Foschia 12 11 93 1017 5 S 9.3
Oggi h: 05:20 foschia Foschia 12 11 93 1017 5 S 9.3
Oggi h: 04:50 sereno Sereno 12 11 93 1017 6 S/SO 9.3
Oggi h: 04:20 sereno Sereno 12 11 93 1017 6 S/SO 9.3
Oggi h: 03:50 sereno Sereno 12 11 93 1017 6 S/SO 9.3
Oggi h: 03:20 sereno Sereno 12 12 100 1017 6 S/SO 7.4
Oggi h: 01:50 sereno Sereno 13 12 93 1017 9 SO 7.4
Oggi h: 01:20 sereno Sereno 13 12 93 1017 10 SO 7.4
Oggi h: 00:50 sereno Sereno 14 12 87 1017 10 SO 11.1
Oggi h: 00:20 sereno Sereno 14 12 87 1017 10 SO 11.1
Ieri h: 23:50 sereno Sereno 14 12 87 1017 10 O/SO 11.1